Weather History for Maple Lake, MN

Change the Weather History Date:

Saturday, January 19, 2013

  Actual Average (KSTC) Record (KSTC)
Temperature  
Mean Temperature 18 °F 11 °F  
Max Temperature 37 °F 21 °F 50 °F (1900)
Min Temperature 0 °F 1 °F -40 °F (1994)
Degree Days  
Heating Degree Days 46 54  
Month to date heating degree days 1019  
Since 1 July heating degree days 4466  
Cooling Degree Days 0 0  
Month to date cooling degree days 0  
Year to date cooling degree days 0  
Moisture  
Dew Point 15 °F    
Average Humidity 82    
Maximum Humidity 100    
Minimum Humidity 62    
Precipitation  
Precipitation 0.00 in 0.02 in 0.36 in (1979)
Month to date precipitation 0.43  
Year to date precipitation 0.43  
Snow  
Snow 0.00 in 0.30 in 5.80 in (1979)
Month to date snowfall 5.6  
Since 1 July snowfall 24.2  
Snow Depth -    
Sea Level Pressure  
Sea Level Pressure 29.87 in    
Wind  
Wind Speed 9 mph (West)    
Max Wind Speed 32 mph    
Max Gust Speed 45 mph    
Visibility 10 miles    
Events      
T = Trace of Precipitation, MM = Missing Value Source: NWS Daily Summary

Daily Weather History Graph

Daily Weather History Graph

Search for Another Location

Airport:

Trip Planner

Search our weather history database for the weather conditions in past years. The results will help you decide how hot, cold, wet, or windy it might be!

Date:

Astronomy

Jan. 19, 2013 Rise Set
Actual Time 7:48 AM CST 5:05 PM CST
Civil Twilight 7:16 AM CST 5:38 PM CST
Nautical Twilight 6:39 AM CST 6:14 PM CST
Astronomical Twilight 6:04 AM CST 6:49 PM CST
Moon 11:35 AM CST (1/19) 1:19 AM CST (1/19)
Length of Visible Light 10h 22m
Length of Day
9h 16m
First Quarter, 57% of the Moon is Illuminated
Jan 19
First Quarter
Jan 26
Full
Feb 3
Last Quarter
Feb 10
New
Feb 17
First Quarter

Hourly Weather History & Observations

Time (CST) Temp. Windchill Dew Point Humidity Pressure Visibility Wind Dir Wind Speed Gust Speed Precip Events Conditions
12:15 AM 24.4 °F - 23.9 °F 98% 29.76 in 10.0 mi Calm Calm - N/A   Clear
12:35 AM 24.8 °F 20.5 °F 24.3 °F 98% 29.76 in 10.0 mi SSE 3.5 mph - N/A   Clear
12:56 AM 25.5 °F 21.3 °F 25.0 °F 98% 29.75 in 10.0 mi SSE 3.5 mph - N/A   Clear
1:15 AM 24.6 °F - 23.9 °F 97% 29.75 in 10.0 mi Calm Calm - N/A   Clear
1:35 AM 25.3 °F 21.1 °F 24.8 °F 98% 29.75 in 10.0 mi SSE 3.5 mph - N/A   Clear
1:56 AM 24.8 °F 20.5 °F 24.4 °F 99% 29.74 in 10.0 mi SE 3.5 mph - N/A   Clear
2:15 AM 23.2 °F - 22.8 °F 99% 29.74 in 10.0 mi Calm Calm - N/A   Clear
2:35 AM 24.8 °F 20.5 °F 24.6 °F 99% 29.73 in 10.0 mi SSE 3.5 mph - N/A   Scattered Clouds
2:55 AM 24.8 °F 20.5 °F 24.4 °F 99% 29.72 in 10.0 mi SE 3.5 mph - N/A   Mostly Cloudy
3:15 AM 26.2 °F 22.1 °F 25.9 °F 99% 29.73 in 10.0 mi South 3.5 mph - N/A   Scattered Clouds
3:35 AM 26.8 °F 20.2 °F 26.2 °F 98% 29.72 in 10.0 mi SSW 5.8 mph - N/A   Mostly Cloudy
3:55 AM 27.3 °F 19.9 °F 26.4 °F 96% 29.70 in 10.0 mi SSW 6.9 mph - N/A   Scattered Clouds
4:16 AM 27.5 °F 21.1 °F 26.4 °F 96% 29.67 in 10.0 mi South 5.8 mph - N/A   Clear
4:35 AM 27.9 °F 20.6 °F 26.6 °F 95% 29.71 in 10.0 mi West 6.9 mph - N/A   Clear
4:55 AM 27.3 °F - 26.1 °F 95% 29.70 in 10.0 mi Calm Calm - N/A   Clear
5:16 AM 25.7 °F - 25.0 °F 97% 29.70 in 10.0 mi Calm Calm - N/A   Clear
5:35 AM 24.8 °F 20.5 °F 24.4 °F 99% 29.70 in 7.0 mi SSE 3.5 mph - N/A   Clear
5:55 AM 24.1 °F 18.2 °F 23.9 °F 99% 29.67 in 7.0 mi SE 4.6 mph - N/A   Clear
6:15 AM 23.5 °F - 23.2 °F 99% 29.69 in 10.0 mi Calm Calm - N/A   Clear
6:35 AM 24.1 °F 19.7 °F 23.7 °F 99% 29.67 in 10.0 mi SW 3.5 mph - N/A   Scattered Clouds
6:55 AM 26.4 °F 22.4 °F 26.4 °F 100% 29.69 in 10.0 mi WSW 3.5 mph - N/A   Scattered Clouds
7:15 AM 26.4 °F 19.8 °F 26.1 °F 99% 29.68 in 10.0 mi WSW 5.8 mph - N/A   Scattered Clouds
7:35 AM 27.5 °F 20.2 °F 27.0 °F 98% 29.69 in 10.0 mi WSW 6.9 mph - N/A   Mostly Cloudy
7:54 AM 28.9 °F 21.9 °F 27.5 °F 94% 29.69 in 10.0 mi West 6.9 mph - N/A   Mostly Cloudy
8:15 AM 28.8 °F 23.7 °F 27.3 °F 94% 29.70 in 10.0 mi West 4.6 mph - N/A   Overcast
8:36 AM 30.0 °F 22.4 °F 27.5 °F 90% 29.70 in 10.0 mi West 8.1 mph - N/A   Mostly Cloudy
8:55 AM 31.5 °F 23.5 °F 28.4 °F 88% 29.71 in 10.0 mi West 9.2 mph - N/A   Scattered Clouds
9:35 AM 34.0 °F 26.0 °F 29.1 °F 82% 29.73 in 10.0 mi West 10.4 mph - N/A   Mostly Cloudy
9:55 AM 34.3 °F 26.5 °F 29.3 °F 82% 29.73 in 10.0 mi WNW 10.4 mph 17.3 mph N/A   Overcast
10:15 AM 34.9 °F 25.3 °F 29.3 °F 80% 29.75 in 10.0 mi West 15.0 mph 19.6 mph N/A   Mostly Cloudy
10:35 AM 35.1 °F 26.9 °F 29.3 °F 80% 29.75 in 10.0 mi WNW 11.5 mph 21.9 mph N/A   Scattered Clouds
10:55 AM 35.6 °F 26.6 °F 29.7 °F 79% 29.75 in 10.0 mi WNW 13.8 mph - N/A   Mostly Cloudy
11:15 AM 36.3 °F 28.4 °F 30.2 °F 78% 29.75 in 10.0 mi WNW 11.5 mph 17.3 mph N/A   Mostly Cloudy
11:35 AM 35.8 °F 26.9 °F 29.8 °F 79% 29.75 in 10.0 mi West 13.8 mph 20.7 mph N/A   Scattered Clouds
11:55 AM 36.5 °F 27.0 °F 30.2 °F 78% 29.74 in 10.0 mi West 16.1 mph 24.2 mph N/A   Mostly Cloudy
12:15 PM 36.5 °F 27.4 °F 30.7 °F 80% 29.74 in 10.0 mi West 15.0 mph 24.2 mph N/A   Overcast
12:35 PM 37.4 °F 27.8 °F 30.6 °F 76% 29.73 in 10.0 mi West 17.3 mph 21.9 mph N/A   Overcast
12:55 PM 36.9 °F 25.4 °F 30.4 °F 77% 29.74 in 10.0 mi West 24.2 mph 32.2 mph N/A   Overcast
1:15 PM 36.7 °F 27.2 °F 30.4 °F 78% 29.74 in 10.0 mi West 16.1 mph 24.2 mph N/A   Overcast
1:35 PM 35.4 °F 22.5 °F 29.8 °F 80% 29.76 in 10.0 mi WNW 28.8 mph 35.7 mph N/A   Overcast
1:55 PM 30.4 °F 16.5 °F 21.4 °F 69% 29.79 in 10.0 mi WNW 25.3 mph 42.6 mph N/A   Overcast
2:16 PM 26.4 °F 10.6 °F 16.0 °F 65% 29.80 in 10.0 mi West 27.6 mph 44.9 mph N/A   Scattered Clouds
2:35 PM 22.8 °F 4.6 °F 12.7 °F 65% 29.83 in 10.0 mi WNW 32.2 mph 40.3 mph N/A   Scattered Clouds
2:55 PM 20.1 °F 1.8 °F 11.3 °F 69% 29.85 in 10.0 mi WNW 28.8 mph 38.0 mph N/A   Scattered Clouds
3:15 PM 18.1 °F 0.4 °F 9.0 °F 67% 29.87 in 10.0 mi WNW 24.2 mph 35.7 mph N/A   Mostly Cloudy
3:35 PM 17.1 °F -0.3 °F 8.1 °F 68% 29.90 in 10.0 mi WNW 21.9 mph 35.7 mph N/A   Mostly Cloudy
3:55 PM 15.4 °F -2.8 °F 6.3 °F 67% 29.91 in 10.0 mi WNW 23.0 mph 38.0 mph N/A   Scattered Clouds
4:15 PM 14.0 °F -7.1 °F 3.2 °F 62% 29.93 in 10.0 mi WNW 31.1 mph 42.6 mph N/A   Clear
4:35 PM 12.9 °F -6.9 °F 3.7 °F 67% 29.95 in 10.0 mi WNW 25.3 mph 39.1 mph N/A   Scattered Clouds
4:55 PM 11.8 °F -9.7 °F 1.9 °F 65% 29.97 in 10.0 mi WNW 29.9 mph 38.0 mph N/A   Scattered Clouds
5:15 PM 10.2 °F -9.3 °F 1.4 °F 68% 30.00 in 10.0 mi WNW 21.9 mph 38.0 mph N/A   Mostly Cloudy
5:35 PM 9.1 °F -10.3 °F -0.6 °F 65% 30.02 in 10.0 mi WNW 20.7 mph 33.4 mph N/A   Scattered Clouds
5:55 PM 8.2 °F -11.5 °F -0.6 °F 67% 30.03 in 10.0 mi WNW 20.7 mph 35.7 mph N/A   Scattered Clouds
6:15 PM 7.5 °F -13.3 °F -0.6 °F 70% 30.05 in 10.0 mi WNW 23.0 mph 33.4 mph N/A   Mostly Cloudy
6:35 PM 6.1 °F -14.3 °F -2.9 °F 67% 30.07 in 10.0 mi WNW 20.7 mph 32.2 mph N/A   Scattered Clouds
6:55 PM 5.4 °F -13.7 °F -3.1 °F 68% 30.10 in 10.0 mi WNW 17.3 mph 29.9 mph N/A   Scattered Clouds
7:15 PM 4.5 °F -15.9 °F -3.1 °F 71% 30.11 in 10.0 mi WNW 19.6 mph 27.6 mph N/A   Scattered Clouds
7:35 PM 3.7 °F -15.2 °F -3.6 °F 71% 30.13 in 10.0 mi WNW 16.1 mph 29.9 mph N/A   Mostly Cloudy
7:55 PM 3.2 °F -17.6 °F -3.5 °F 74% 30.14 in 10.0 mi WNW 19.6 mph 26.5 mph N/A   Overcast
8:16 PM 2.8 °F -18.1 °F -3.1 °F 76% 30.15 in 10.0 mi WNW 19.6 mph 26.5 mph N/A   Overcast
8:35 PM 2.3 °F -15.7 °F -3.1 °F 78% 30.16 in 10.0 mi WNW 13.8 mph 23.0 mph N/A   Overcast
8:55 PM 2.3 °F -17.1 °F -2.7 °F 79% 30.17 in 10.0 mi NW 16.1 mph 25.3 mph N/A   Overcast
9:15 PM 2.3 °F -17.1 °F -4.7 °F 72% 30.18 in 10.0 mi NW 16.1 mph 26.5 mph N/A   Scattered Clouds
9:35 PM 2.3 °F -17.1 °F -5.1 °F 71% 30.20 in 10.0 mi NW 16.1 mph 24.2 mph N/A   Clear
9:55 PM 2.1 °F -16.0 °F -5.3 °F 71% 30.21 in 10.0 mi NW 13.8 mph 25.3 mph N/A   Clear
10:15 PM 1.8 °F -15.7 °F -4.9 °F 74% 30.22 in 10.0 mi WNW 12.7 mph 21.9 mph N/A   Clear
10:35 PM 1.0 °F -17.3 °F -6.0 °F 72% 30.22 in 10.0 mi WNW 13.8 mph - N/A   Clear
10:55 PM 0.5 °F -16.5 °F -6.2 °F 74% 30.21 in 10.0 mi NW 11.5 mph 19.6 mph N/A   Clear
11:15 PM 0.1 °F -15.1 °F -6.3 °F 74% 30.21 in 10.0 mi NW 9.2 mph 18.4 mph N/A   Clear
11:36 PM -0.4 °F -17.6 °F -6.7 °F 75% 30.24 in 10.0 mi WNW 11.5 mph - N/A   Clear
11:55 PM -0.0 °F -19.4 °F -6.3 °F 75% 30.25 in 10.0 mi West 15.0 mph - N/A   Clear